SAS77K ENGM-EKCH

Flight info

Callsign SAS77K
Flight time 0h 52m
Altitude 31000
Route OKSAT L996 GETPA/N0442F390 L996 KELIN DCT TOPLA L996 ERNOV
Aircraft A20N/M-SDE3FGIJ1RWXY/ALB1

Departure

Time 2026-05-07 19:36
Airport Oslo-Gardermoen International Airport (ENGM)

Arrival

Time 2026-05-07 20:28
Airport Copenhagen Kastrup Airport (EKCH)
Time Latitude Longitude Altitude Speed Heading
2026-05-07 18:56 60.19321 11.10418 688 ft 0 kts 15°
2026-05-07 19:24 60.19313 11.10413 688 ft 2 kts 15°
2026-05-07 19:24 60.19299 11.10405 688 ft 2 kts 15°
2026-05-07 19:25 60.19284 11.10397 688 ft 2 kts 15°
2026-05-07 19:25 60.19274 11.10390 688 ft 1 kts 52°
2026-05-07 19:25 60.19271 11.10374 688 ft 0 kts 101°
2026-05-07 19:25 60.19274 11.10362 688 ft 1 kts 107°
2026-05-07 19:26 60.19274 11.10359 688 ft 0 kts 106°
2026-05-07 19:29 60.19270 11.10389 688 ft 5 kts 106°
2026-05-07 19:29 60.19254 11.10498 688 ft 10 kts 105°
2026-05-07 19:29 60.19233 11.10650 688 ft 11 kts 105°
2026-05-07 19:30 60.19210 11.10817 688 ft 12 kts 106°
2026-05-07 19:30 60.19185 11.10994 688 ft 13 kts 105°
2026-05-07 19:30 60.19200 11.11154 688 ft 13 kts 23°
2026-05-07 19:30 60.19291 11.11211 688 ft 14 kts 14°
2026-05-07 19:31 60.19387 11.11261 688 ft 14 kts 15°
2026-05-07 19:31 60.19487 11.11321 688 ft 15 kts 17°
2026-05-07 19:31 60.19591 11.11381 688 ft 15 kts 15°
2026-05-07 19:31 60.19695 11.11440 688 ft 14 kts 15°
2026-05-07 19:32 60.19734 11.11553 688 ft 10 kts 99°
2026-05-07 19:32 60.19713 11.11690 688 ft 9 kts 107°
2026-05-07 19:32 60.19705 11.11744 688 ft 0 kts 109°
2026-05-07 19:34 60.19700 11.11776 688 ft 6 kts 109°
2026-05-07 19:34 60.19658 11.11872 688 ft 10 kts 146°
2026-05-07 19:34 60.19591 11.11941 688 ft 11 kts 182°
2026-05-07 19:35 60.19568 11.11932 687 ft 0 kts 195°
2026-05-07 19:35 60.19566 11.11930 687 ft 0 kts 196°
2026-05-07 19:35 60.19451 11.11864 688 ft 51 kts 197°
2026-05-07 19:35 60.18856 11.11520 688 ft 123 kts 195°
2026-05-07 19:36 60.17854 11.10927 898 ft 161 kts 194°
2026-05-07 19:36 60.16780 11.10365 1547 ft 164 kts 193°
2026-05-07 19:36 60.15670 11.09711 2306 ft 167 kts 196°
2026-05-07 19:36 60.14530 11.08990 2925 ft 175 kts 194°
2026-05-07 19:37 60.13315 11.08594 3459 ft 185 kts 171°
2026-05-07 19:37 60.12190 11.09836 3984 ft 195 kts 131°
2026-05-07 19:37 60.11431 11.12170 4629 ft 204 kts 118°
2026-05-07 19:37 60.10581 11.14560 5113 ft 222 kts 131°
2026-05-07 19:38 60.09448 11.16891 5549 ft 246 kts 135°
2026-05-07 19:38 60.08155 11.19284 6158 ft 263 kts 144°
2026-05-07 19:38 60.06431 11.20723 7001 ft 271 kts 166°
2026-05-07 19:38 60.04553 11.21503 7990 ft 274 kts 169°
2026-05-07 19:39 60.02679 11.22222 8918 ft 278 kts 169°
2026-05-07 19:39 60.00778 11.23006 9833 ft 282 kts 168°
2026-05-07 19:39 59.98863 11.23848 10663 ft 290 kts 168°
2026-05-07 19:39 59.96825 11.24784 11206 ft 308 kts 168°
2026-05-07 19:40 59.94627 11.25821 11722 ft 325 kts 168°
2026-05-07 19:40 59.92311 11.26937 12509 ft 333 kts 168°
2026-05-07 19:40 59.90017 11.28052 13377 ft 337 kts 168°
2026-05-07 19:40 59.87660 11.29201 14214 ft 342 kts 169°
2026-05-07 19:41 59.85304 11.30352 14984 ft 348 kts 169°
2026-05-07 19:41 59.82950 11.31500 15741 ft 353 kts 169°
2026-05-07 19:41 59.80588 11.32652 16462 ft 358 kts 169°
2026-05-07 19:41 59.78105 11.33860 17199 ft 362 kts 169°
2026-05-07 19:42 59.75573 11.35091 17923 ft 367 kts 169°
2026-05-07 19:42 59.72997 11.36341 18615 ft 372 kts 170°
2026-05-07 19:42 59.70418 11.37592 19291 ft 377 kts 170°
2026-05-07 19:42 59.67786 11.38866 19935 ft 382 kts 170°
2026-05-07 19:43 59.65190 11.40119 20547 ft 387 kts 170°
2026-05-07 19:43 59.62468 11.41434 21186 ft 392 kts 170°
2026-05-07 19:43 59.59753 11.42744 21789 ft 397 kts 170°
2026-05-07 19:43 59.57002 11.44064 22391 ft 401 kts 170°
2026-05-07 19:44 59.54216 11.45402 22966 ft 405 kts 170°
2026-05-07 19:44 59.51447 11.46732 23526 ft 409 kts 170°
2026-05-07 19:44 59.48592 11.48097 24095 ft 413 kts 171°
2026-05-07 19:44 59.45773 11.49446 24638 ft 417 kts 171°
2026-05-07 19:45 59.42907 11.50814 25165 ft 421 kts 171°
2026-05-07 19:45 59.40049 11.52174 25683 ft 425 kts 171°
2026-05-07 19:45 59.37156 11.53550 26207 ft 428 kts 171°
2026-05-07 19:45 59.34250 11.54931 26681 ft 431 kts 171°
2026-05-07 19:46 59.31332 11.56314 27148 ft 435 kts 171°
2026-05-07 19:46 59.28311 11.57744 27627 ft 438 kts 171°
2026-05-07 19:46 59.25328 11.59152 28089 ft 440 kts 171°
2026-05-07 19:46 59.22293 11.60582 28538 ft 443 kts 171°
2026-05-07 19:47 59.19236 11.62020 28971 ft 446 kts 171°
2026-05-07 19:47 59.16167 11.63462 29400 ft 449 kts 171°
2026-05-07 19:47 59.13070 11.64913 29823 ft 452 kts 171°
2026-05-07 19:47 59.09967 11.66366 30245 ft 453 kts 172°
2026-05-07 19:48 59.06828 11.67834 30808 ft 452 kts 172°
2026-05-07 19:48 59.03701 11.69294 31355 ft 450 kts 172°
2026-05-07 19:48 59.00626 11.70723 31877 ft 448 kts 171°
2026-05-07 19:48 58.97557 11.72151 32361 ft 447 kts 171°
2026-05-07 19:49 58.94477 11.73579 32808 ft 447 kts 172°
2026-05-07 19:49 58.91353 11.75022 33257 ft 446 kts 171°
2026-05-07 19:49 58.88274 11.76443 33695 ft 445 kts 171°
2026-05-07 19:49 58.85297 11.77815 34081 ft 444 kts 171°
2026-05-07 19:50 58.82248 11.79216 34477 ft 444 kts 171°
2026-05-07 19:50 58.79192 11.80623 34853 ft 443 kts 171°
2026-05-07 19:50 58.76129 11.82029 35147 ft 443 kts 171°
2026-05-07 19:50 58.73087 11.83419 35451 ft 441 kts 171°
2026-05-07 19:51 58.70047 11.84809 35768 ft 439 kts 171°
2026-05-07 19:51 58.67067 11.86168 36077 ft 437 kts 171°
2026-05-07 19:51 58.64069 11.87535 36358 ft 435 kts 171°
2026-05-07 19:51 58.61120 11.88876 36597 ft 433 kts 171°
2026-05-07 19:52 58.58120 11.90239 36917 ft 432 kts 171°
2026-05-07 19:52 58.55143 11.91587 37237 ft 430 kts 170°
2026-05-07 19:52 58.52216 11.92910 37550 ft 429 kts 170°
2026-05-07 19:52 58.49250 11.94248 37844 ft 427 kts 170°
2026-05-07 19:53 58.46376 11.95545 38081 ft 427 kts 170°
2026-05-07 19:53 58.43477 11.96847 38274 ft 428 kts 170°
2026-05-07 19:53 58.40594 11.98142 38451 ft 428 kts 170°
2026-05-07 19:53 58.37682 11.99449 38625 ft 429 kts 170°
2026-05-07 19:54 58.34823 12.00732 38801 ft 429 kts 170°
2026-05-07 19:54 58.31916 12.02031 38990 ft 429 kts 170°
2026-05-07 19:54 58.29022 12.03320 39099 ft 430 kts 170°
2026-05-07 19:54 58.26125 12.04605 39101 ft 430 kts 171°
2026-05-07 19:55 58.20177 12.06489 39111 ft 428 kts 175°
2026-05-07 19:55 58.14207 12.08057 39112 ft 428 kts 175°
2026-05-07 19:56 58.08313 12.09615 39113 ft 428 kts 175°
2026-05-07 19:56 58.02430 12.11163 39108 ft 428 kts 175°
2026-05-07 19:57 57.96508 12.12709 39105 ft 428 kts 175°
2026-05-07 19:57 57.90597 12.14248 39106 ft 428 kts 174°
2026-05-07 19:58 57.84663 12.15791 39105 ft 428 kts 174°
2026-05-07 19:58 57.78766 12.17318 39114 ft 427 kts 174°
2026-05-07 19:59 57.72844 12.18846 39115 ft 428 kts 174°
2026-05-07 19:59 57.66817 12.20395 39113 ft 428 kts 174°
2026-05-07 20:00 57.60842 12.21926 39109 ft 427 kts 174°
2026-05-07 20:00 57.54976 12.23424 38610 ft 431 kts 174°
2026-05-07 20:01 57.51979 12.24184 37696 ft 440 kts 174°
2026-05-07 20:01 57.48964 12.24947 36868 ft 445 kts 173°
2026-05-07 20:01 57.45905 12.25722 36239 ft 448 kts 173°
2026-05-07 20:01 57.42821 12.26506 35627 ft 450 kts 173°
2026-05-07 20:02 57.39752 12.27283 34987 ft 452 kts 173°
2026-05-07 20:02 57.36603 12.28080 34171 ft 455 kts 173°
2026-05-07 20:02 57.33507 12.28865 33330 ft 454 kts 173°
2026-05-07 20:02 57.30397 12.29652 32134 ft 453 kts 173°
2026-05-07 20:03 57.27339 12.30426 30680 ft 455 kts 173°
2026-05-07 20:03 57.24225 12.31210 29120 ft 456 kts 173°
2026-05-07 20:03 57.21117 12.31990 28386 ft 445 kts 173°
2026-05-07 20:03 57.18067 12.32753 28068 ft 432 kts 173°
2026-05-07 20:04 57.15026 12.33512 27702 ft 426 kts 173°
2026-05-07 20:04 57.11995 12.34266 27250 ft 423 kts 173°
2026-05-07 20:04 57.08982 12.35013 26780 ft 420 kts 173°
2026-05-07 20:04 57.05992 12.35756 26292 ft 417 kts 173°
2026-05-07 20:05 57.03065 12.36482 25800 ft 413 kts 173°
2026-05-07 20:05 57.00078 12.37220 25308 ft 410 kts 173°
2026-05-07 20:05 56.97185 12.37935 24833 ft 406 kts 173°
2026-05-07 20:05 56.94323 12.38645 24354 ft 403 kts 173°
2026-05-07 20:06 56.91511 12.39340 23877 ft 400 kts 173°
2026-05-07 20:06 56.88626 12.40053 23392 ft 397 kts 173°
2026-05-07 20:06 56.85831 12.40742 22922 ft 395 kts 173°
2026-05-07 20:06 56.83007 12.41434 22430 ft 393 kts 173°
2026-05-07 20:07 56.80274 12.42104 21949 ft 391 kts 173°
2026-05-07 20:07 56.77557 12.42770 21474 ft 388 kts 173°
2026-05-07 20:07 56.74863 12.43429 20988 ft 386 kts 173°
2026-05-07 20:07 56.72233 12.44072 20525 ft 384 kts 173°
2026-05-07 20:08 56.69516 12.44733 20044 ft 382 kts 173°
2026-05-07 20:08 56.66913 12.45368 19572 ft 379 kts 173°
2026-05-07 20:08 56.64313 12.46001 19099 ft 376 kts 173°
2026-05-07 20:08 56.61755 12.46623 18630 ft 374 kts 173°
2026-05-07 20:09 56.59200 12.47242 18181 ft 371 kts 173°
2026-05-07 20:09 56.56653 12.47626 17835 ft 363 kts 182°
2026-05-07 20:09 56.54098 12.47153 17576 ft 362 kts 188°
2026-05-07 20:10 56.49018 12.45761 17071 ft 359 kts 189°
2026-05-07 20:10 56.46493 12.45113 16809 ft 358 kts 188°
2026-05-07 20:10 56.43941 12.44495 16543 ft 356 kts 188°
2026-05-07 20:10 56.41419 12.43906 16285 ft 355 kts 188°
2026-05-07 20:11 56.38923 12.43338 16033 ft 353 kts 187°
2026-05-07 20:11 56.36431 12.42780 15773 ft 352 kts 187°
2026-05-07 20:11 56.33946 12.42227 15507 ft 350 kts 187°
2026-05-07 20:11 56.31520 12.41691 15257 ft 349 kts 187°
2026-05-07 20:12 56.29068 12.41151 14991 ft 348 kts 187°
2026-05-07 20:12 56.26618 12.40614 14738 ft 347 kts 187°
2026-05-07 20:12 56.24142 12.40072 14481 ft 345 kts 187°
2026-05-07 20:12 56.21734 12.39546 14231 ft 344 kts 187°
2026-05-07 20:13 56.19281 12.39011 13966 ft 343 kts 187°
2026-05-07 20:13 56.16829 12.38477 13697 ft 341 kts 187°
2026-05-07 20:13 56.14406 12.37950 13431 ft 340 kts 187°
2026-05-07 20:13 56.11967 12.37420 13170 ft 338 kts 187°
2026-05-07 20:14 56.09552 12.36896 12919 ft 337 kts 187°
2026-05-07 20:14 56.07176 12.36382 12653 ft 336 kts 186°
2026-05-07 20:14 56.04783 12.35863 12355 ft 335 kts 186°
2026-05-07 20:14 56.02442 12.35356 11965 ft 333 kts 186°
2026-05-07 20:15 56.00154 12.34861 11546 ft 331 kts 186°
2026-05-07 20:15 55.97872 12.34370 11113 ft 328 kts 186°
2026-05-07 20:15 55.95593 12.33878 10699 ft 326 kts 186°
2026-05-07 20:15 55.93348 12.33394 10433 ft 317 kts 186°
2026-05-07 20:16 55.91187 12.32929 10313 ft 304 kts 185°
2026-05-07 20:16 55.89098 12.32479 10179 ft 292 kts 185°
2026-05-07 20:16 55.87097 12.32052 9977 ft 284 kts 185°
2026-05-07 20:16 55.85117 12.31630 9614 ft 284 kts 185°
2026-05-07 20:17 55.83100 12.31200 9240 ft 282 kts 185°
2026-05-07 20:17 55.81137 12.30782 8890 ft 280 kts 185°
2026-05-07 20:17 55.79150 12.30357 8550 ft 278 kts 185°
2026-05-07 20:17 55.77182 12.29938 8217 ft 276 kts 185°
2026-05-07 20:18 55.75305 12.29538 7885 ft 274 kts 185°
2026-05-07 20:18 55.73418 12.29136 7560 ft 271 kts 185°
2026-05-07 20:18 55.71557 12.28740 7250 ft 269 kts 184°
2026-05-07 20:18 55.69701 12.28346 6840 ft 270 kts 184°
2026-05-07 20:19 55.67809 12.27945 6405 ft 270 kts 184°
2026-05-07 20:19 55.65950 12.27555 6018 ft 269 kts 185°
2026-05-07 20:19 55.64071 12.27160 5612 ft 268 kts 185°
2026-05-07 20:19 55.62225 12.26772 5203 ft 269 kts 185°
2026-05-07 20:20 55.60372 12.26381 4798 ft 269 kts 185°
2026-05-07 20:20 55.58542 12.25995 4407 ft 269 kts 186°
2026-05-07 20:20 55.56681 12.25623 4023 ft 268 kts 182°
2026-05-07 20:20 55.54834 12.25888 3633 ft 267 kts 168°
2026-05-07 20:21 55.53025 12.26578 3258 ft 266 kts 165°
2026-05-07 20:21 55.51259 12.27328 2985 ft 261 kts 165°
2026-05-07 20:21 55.49548 12.28066 2966 ft 246 kts 165°
2026-05-07 20:21 55.47925 12.28763 2963 ft 235 kts 165°
2026-05-07 20:22 55.46351 12.29442 2971 ft 235 kts 165°
2026-05-07 20:22 55.44832 12.30484 2923 ft 231 kts 141°
2026-05-07 20:22 55.43841 12.32584 2612 ft 225 kts 108°
2026-05-07 20:22 55.43656 12.35234 2388 ft 214 kts 79°
2026-05-07 20:23 55.44202 12.37526 2140 ft 205 kts 47°
2026-05-07 20:23 55.45238 12.39161 1973 ft 196 kts 35°
2026-05-07 20:23 55.46292 12.40545 1954 ft 182 kts 35°
2026-05-07 20:23 55.47255 12.41882 2020 ft 173 kts 37°
2026-05-07 20:24 55.48183 12.43245 2025 ft 173 kts 38°
2026-05-07 20:24 55.49091 12.44628 2005 ft 173 kts 38°
2026-05-07 20:24 55.50013 12.46055 1981 ft 173 kts 39°
2026-05-07 20:24 55.50906 12.47447 1976 ft 173 kts 39°
2026-05-07 20:25 55.51828 12.48884 1957 ft 177 kts 39°
2026-05-07 20:25 55.52757 12.50329 1757 ft 172 kts 39°
2026-05-07 20:25 55.53637 12.51699 1526 ft 169 kts 39°
2026-05-07 20:25 55.54514 12.53060 1300 ft 169 kts 39°
2026-05-07 20:26 55.55395 12.54425 1076 ft 169 kts 39°
2026-05-07 20:26 55.56286 12.55807 842 ft 167 kts 39°
2026-05-07 20:26 55.57112 12.57089 605 ft 151 kts 39°
2026-05-07 20:26 55.57859 12.58246 399 ft 136 kts 39°
2026-05-07 20:27 55.58548 12.59313 213 ft 127 kts 39°
2026-05-07 20:27 55.59208 12.60325 78 ft 126 kts 39°
2026-05-07 20:27 55.59858 12.61324 21 ft 113 kts 40°
2026-05-07 20:27 55.60361 12.62107 26 ft 83 kts 40°
2026-05-07 20:28 55.60744 12.62703 21 ft 64 kts 41°
2026-05-07 20:28 55.61047 12.63170 18 ft 53 kts 40°
2026-05-07 20:28 55.61308 12.63576 20 ft 46 kts 41°
2026-05-07 20:28 55.61472 12.63819 23 ft 18 kts 18°
2026-05-07 20:29 55.61595 12.63818 23 ft 17 kts 356°
2026-05-07 20:29 55.61713 12.63829 23 ft 16 kts 30°
2026-05-07 20:29 55.61798 12.63960 24 ft 16 kts 41°
2026-05-07 20:29 55.61885 12.64083 24 ft 16 kts 29°
2026-05-07 20:30 55.61980 12.64167 26 ft 15 kts 25°
2026-05-07 20:30 55.62077 12.64245 26 ft 15 kts 24°
2026-05-07 20:30 55.62177 12.64331 25 ft 16 kts 25°
2026-05-07 20:30 55.62283 12.64401 25 ft 16 kts 13°
2026-05-07 20:31 55.62393 12.64452 26 ft 16 kts 15°
2026-05-07 20:31 55.62488 12.64478 26 ft 13 kts 337°
2026-05-07 20:31 55.62547 12.64345 26 ft 14 kts 302°
2026-05-07 20:31 55.62619 12.64277 26 ft 13 kts 27°
2026-05-07 20:32 55.62696 12.64334 26 ft 8 kts 22°
2026-05-07 20:32 55.62720 12.64363 26 ft 4 kts 64°
2026-05-07 20:32 55.62717 12.64413 26 ft 2 kts 104°
2026-05-07 20:32 55.62714 12.64441 26 ft 0 kts 101°
2026-05-07 20:33 55.62712 12.64449 26 ft 0 kts 102°